Location: Santa Cristina
(46.5667°N, 11.7167°E)
Time: 06:19:22
(UTC+00:00)

Cosmos 158 Rocket - Pass Details

Date: 21 April 2021
Orbit: 699 x 792 km, 74.0° (Epoch: 15 May)

Event Time Altitude Azimuth Distance (km) Brightness Sun altitude
Rises 01:05:20 0° 335° (NNW) 3,125 7.6 -26.3°
Reaches altitude 10° 01:07:42 10° 333° (NNW) 2,191 6.7 -26.1°
Enters shadow 01:11:42 55° 304° (NW) 848 4.1 -25.7°
